User: anonymous   Login
Location: Unspecified
(0.0000°N, 0.0000°E)
Time: 08:00:01
(UTC+01:00)
Language:

CZ-4 DEB - Orbit

View from above orbital plane
View from above orbital plane
View from above satellite
View from above satellite

Ground track
Ground track

The orbit data is extracted from the following two-line orbital elements,

1 29508U 06046D   15061.77904666  .00039172  00000-0  16695-2 0  9999
2 29508 097.6956 077.5257 0007456 116.6723 345.2132 15.22815064456503
Epoch (UTC): 02 March 2015 18:41:49
Eccentricity: 0.0007456
inclination: 97.6956°
perigee height: 492 km
apogee height: 502 km
right ascension of ascending node: 77.5257°
argument of perigee: 116.6723°
revolutions per day: 15.22815064
mean anomaly at epoch: 345.2132°
orbit number at epoch: 45650

The dashed part of the orbit path shows where the satellite is in the earth's shadow,  

DLR